Total_Precipitation_Accumulation
0.25 0.26 0.19 0.11 0.06 0.04 0.02 0.01 0.01 0.05 0.06 0.03 0.01 0.01 0.02 0.01 0.00 0.00 0.00 0.00 0.00 0.01 0.03 0.10 0.11 0.08 0.16 0.16 0.12 0.09 0.14 0.15 0.16 0.18 0.22 0.26 0.41 0.40
0.27 0.27 0.24 0.17 0.10 0.11 0.06 0.03 0.03 0.05 0.08 0.07 0.06 0.05 0.08 0.07 0.04 0.02 0.01 0.01 0.01 0.00 0.01 0.07 0.08 0.08 0.06 0.08 0.10 0.16 0.13 0.15 0.16 0.27 0.44 0.42 0.55 0.57
0.25 0.21 0.20 0.19 0.14 0.09 0.07 0.02 0.01 0.02 0.04 0.07 0.08 0.06 0.10 0.10 0.05 0.01 0.02 0.02 0.01 0.00 0.00 0.01 0.02 0.03 0.04 0.03 0.06 0.12 0.33 0.32 0.21 0.20 0.29 0.48 0.65 0.60
0.32 0.21 0.19 0.21 0.22 0.13 0.11 0.08 0.05 0.06 0.06 0.13 0.13 0.11 0.12 0.09 0.05 0.02 0.02 0.01 0.00 0.00 0.00 0.00 0.01 0.02 0.03 0.03 0.05 0.03 0.11 0.51 0.76 0.58 0.37 0.34 0.54 0.62
0.50 0.46 0.40 0.32 0.33 0.35 0.25 0.21 0.19 0.16 0.14 0.19 0.19 0.14 0.14 0.09 0.04 0.01 0.00 0.00 0.00 0.00 0.00 0.00 0.00 0.01 0.02 0.02 0.02 0.01 0.01 0.03 0.18 0.58 0.97 0.60 0.46 0.62
0.71 0.55 0.51 0.48 0.42 0.32 0.33 0.25 0.20 0.12 0.10 0.11 0.10 0.09 0.07 0.05 0.02 0.01 0.01 0.00 0.00 0.00 0.00 0.00 0.00 0.00 0.01 0.02 0.02 0.01 0.02 0.02 0.03 0.03 0.22 0.69 0.86 0.78
0.82 0.68 0.60 0.55 0.53 0.44 0.35 0.31 0.28 0.24 0.21 0.17 0.11 0.07 0.03 0.04 0.03 0.01 0.01 0.00 0.00 0.00 0.00 0.00 0.00 0.00 0.00 0.02 0.03 0.02 0.01 0.01 0.01 0.02 0.03 0.10 0.20 0.27
1.02 0.96 0.78 0.66 0.57 0.47 0.38 0.27 0.20 0.16 0.14 0.12 0.07 0.04 0.01 0.00 0.01 0.01 0.00 0.00 0.00 0.00 0.00 0.00 0.00 0.00 0.00 0.02 0.05 0.03 0.03 0.02 0.02 0.03 0.03 0.04 0.06 0.12
0.64 0.74 0.77 0.70 0.57 0.40 0.29 0.25 0.17 0.14 0.08 0.05 0.04 0.03 0.00 0.00 0.00 0.00 0.00 0.00 0.00 0.00 0.00 0.00 0.00 0.00 0.00 0.01 0.02 0.03 0.03 0.03 0.01 0.01 0.02 0.03 0.03 0.02
0.44 0.40 0.37 0.43 0.39 0.31 0.24 0.18 0.14 0.13 0.11 0.05 0.02 0.02 0.00 0.00 0.00 0.00 0.00 0.00 0.00 0.00 0.00 0.00 0.00 0.00 0.00 0.00 0.01 0.01 0.03 0.02 0.01 0.01 0.00 0.00 0.01 0.01
0.34 0.30 0.27 0.24 0.20 0.16 0.13 0.12 0.11 0.10 0.08 0.03 0.01 0.00 0.00 0.00 0.00 0.00 0.00 0.00 0.00 0.00 0.00 0.00 0.01 0.01 0.01 0.00 0.00 0.00 0.00 0.01 0.01 0.01 0.00 0.00 0.00 0.00
0.39 0.31 0.26 0.20 0.15 0.11 0.06 0.05 0.06 0.06 0.04 0.01 0.00 0.00 0.00 0.00 0.00 0.00 0.00 0.00 0.00 0.00 0.00 0.00 0.00 0.01 0.04 0.02 0.00 0.00 0.00 0.00 0.00 0.01 0.00 0.00 0.00 0.00
0.26 0.25 0.22 0.18 0.15 0.15 0.09 0.07 0.05 0.03 0.02 0.00 0.00 0.00 0.00 0.00 0.00 0.00 0.00 0.00 0.00 0.00 0.00 0.00 0.00 0.00 0.01 0.02 0.01 0.00 0.00 0.00 0.00 0.00 0.01 0.00 0.00 0.00
0.23 0.17 0.14 0.13 0.15 0.14 0.10 0.08 0.05 0.03 0.01 0.00 0.00 0.00 0.00 0.00 0.00 0.00 0.00 0.00 0.00 0.00 0.00 0.00 0.00 0.00 0.00 0.00 0.01 0.00 0.00 0.00 0.00 0.01 0.01 0.00 0.00 0.00
0.21 0.16 0.14 0.14 0.11 0.09 0.05 0.02 0.01 0.00 0.00 0.00 0.00 0.00 0.00 0.00 0.00 0.00 0.00 0.00 0.00 0.00 0.00 0.00 0.00 0.00 0.00 0.00 0.00 0.00 0.00 0.00 0.00 0.00 0.00 0.00 0.00 0.00
0.11 0.09 0.07 0.06 0.04 0.02 0.01 0.00 0.00 0.00 0.00 0.00 0.00 0.00 0.00 0.00 0.00 0.00 0.00 0.00 0.00 0.00 0.00 0.00 0.00 0.00 0.00 0.00 0.00 0.00 0.00 0.00 0.00 0.00 0.00 0.00 0.00 0.00
0.05 0.04 0.03 0.02 0.02 0.01 0.00 0.00 0.00 0.00 0.00 0.00 0.00 0.00 0.00 0.00 0.00 0.00 0.00 0.00 0.00 0.00 0.00 0.00 0.00 0.00 0.00 0.00 0.00 0.00 0.00 0.00 0.00 0.00 0.00 0.00 0.00 0.00
0.04 0.03 0.02 0.01 0.01 0.00 0.00 0.00 0.00 0.00 0.00 0.00 0.00 0.00 0.00 0.00 0.00 0.00 0.00 0.00 0.00 0.00 0.00 0.00 0.00 0.00 0.00 0.00 0.00 0.00 0.00 0.00 0.00 0.00 0.00 0.00 0.00 0.00
0.04 0.04 0.03 0.02 0.01 0.00 0.00 0.00 0.00 0.00 0.00 0.00 0.00 0.00 0.00 0.00 0.00 0.00 0.00 0.00 0.00 0.00 0.00 0.00 0.00 0.00 0.00 0.00 0.00 0.00 0.00 0.00 0.00 0.00 0.00 0.00 0.00 0.00
0.05 0.03 0.03 0.02 0.01 0.00 0.00 0.00 0.00 0.00 0.00 0.00 0.00 0.00 0.00 0.00 0.00 0.00 0.00 0.00 0.00 0.00 0.00 0.00 0.00 0.00 0.00 0.00 0.02 0.01 0.00 0.00 0.00 0.00 0.00 0.00 0.00 0.00
0.07 0.05 0.03 0.02 0.01 0.01 0.00 0.00 0.00 0.00 0.00 0.00 0.00 0.00 0.00 0.00 0.00 0.00 0.00 0.00 0.00 0.00 0.00 0.00 0.00 0.00 0.00 0.00 0.00 0.00 0.01 0.00 0.00 0.00 0.00 0.00 0.00 0.00
0.05 0.05 0.05 0.03 0.03 0.02 0.02 0.02 0.02 0.03 0.02 0.03 0.02 0.02 0.02 0.01 0.01 0.01 0.01 0.01 0.01 0.01 0.01 0.00 0.00 0.00 0.00 0.00 0.00 0.00 0.00 0.00 0.00 0.00 0.00 0.00 0.00 0.00
0.06 0.06 0.06 0.06 0.06 0.05 0.05 0.06 0.06 0.07 0.06 0.06 0.05 0.05 0.04 0.05 0.05 0.04 0.03 0.02 0.01 0.01 0.00 0.00 0.00 0.00 0.00 0.00 0.00 0.00 0.00 0.00 0.00 0.00 0.00 0.00 0.00 0.00